Location: Pic du Midi - T1M
(42.9366°N, 0.1426°E)
Time: 13:47:56
(UTC+01:00)

DX 1 - Visible Passes

Search period start: 20 September 2021 00:00
Search period end: 30 September 2021 00:00
Orbit: 618 x 631 km, 98.4° (Epoch: 20 September)

Date Brightness Start Highest point End Pass type
(mag) Time Alt. Az. Time Alt. Az. Time Alt. Az.
20 Sep ? 21:07:26 10° N 21:11:46 78° WNW 21:13:11 41° SSW visible
21 Sep ? 19:51:20 10° NE 19:53:54 15° E 19:54:15 15° E visible
21 Sep ? 21:26:09 10° N 21:30:19 49° WNW 21:31:28 38° WSW visible
22 Sep ? 20:09:09 10° NE 20:12:33 24° E 20:12:33 24° E visible
22 Sep ? 21:45:00 10° N 21:48:49 32° WNW 21:49:46 29° W visible
23 Sep ? 20:27:21 10° NNE 20:30:52 35° E 20:30:52 35° E visible
23 Sep ? 22:04:01 10° NNW 22:07:17 21° WNW 22:08:05 20° W visible
24 Sep ? 20:45:46 10° NNE 20:49:12 49° NE 20:49:12 49° NE visible
24 Sep ? 22:23:22 10° NNW 22:25:41 14° WNW 22:26:25 14° WNW visible
25 Sep ? 21:04:18 10° NNE 21:07:33 50° N 21:07:33 50° N visible
26 Sep ? 19:48:30 10° ENE 19:48:42 11° ENE 19:48:42 11° ENE visible
26 Sep ? 21:22:59 10° N 21:25:56 39° NNW 21:25:56 39° NNW visible
27 Sep ? 20:06:11 10° NE 20:07:05 14° NE 20:07:05 14° NE visible
27 Sep ? 21:41:47 10° N 21:44:19 28° NNW 21:44:19 28° NNW visible
28 Sep ? 20:24:19 10° NNE 20:25:29 17° NE 20:25:29 17° NE visible
28 Sep ? 22:00:46 10° NNW 22:02:43 20° NW 22:02:43 20° NW visible
29 Sep ? 20:42:40 10° NNE 20:43:54 18° NNE 20:43:54 18° NNE visible
29 Sep ? 22:20:00 10° NNW 22:21:07 14° NW 22:21:07 14° NW visible
